Location: Unspecified
(0.0000°N, 0.0000°E)
Time: 05:50:43
(UTC+00:00)

Tiros 1 despin weight - All Passes

Search period start: 08 September 2024 00:00
Search period end: 18 September 2024 00:00
Orbit: 574 x 618 km, 48.2° (Epoch: 07 September)

Date Brightness Start Highest point End Pass type
(mag) Time Alt. Az. Time Alt. Az. Time Alt. Az.
08 Sep - 02:34:55 10° SSW 02:39:22 72° SE 02:43:52 10° NE night (unlit)
08 Sep - 14:39:42 10° NW 14:44:03 73° SW 14:48:21 10° SSE daylight
09 Sep - 01:05:44 10° SSE 01:07:35 12° SE 01:09:27 10° ESE night (unlit)
09 Sep - 02:44:12 10° SW 02:48:30 47° NW 02:52:50 10° NNE night (unlit)
09 Sep - 13:09:18 10° N 13:12:18 18° NE 13:15:16 10° E daylight
09 Sep - 14:49:20 10° WNW 14:53:10 30° SW 14:56:58 10° S daylight
10 Sep - 01:12:58 10° S 01:16:45 27° SE 01:20:33 10° ENE night (unlit)
10 Sep - 02:54:15 10° W 02:57:38 21° NW 03:01:02 10° N night (unlit)
10 Sep - 13:17:18 10° NNW 13:21:26 40° NE 13:25:31 10° ESE daylight
10 Sep - 15:00:08 10° W 15:02:18 13° SW 15:04:27 10° SSW daylight
11 Sep - 01:21:27 10° SSW 01:25:50 63° SE 01:30:16 10° NE night (unlit)
11 Sep - 13:26:07 10° NW 13:30:30 83° SW 13:34:51 10° SE daylight
11 Sep - 23:52:54 10° SE 23:53:59 11° SE 23:55:05 10° ESE night (unlit)
12 Sep - 01:30:35 10° SW 01:34:54 53° NW 01:39:16 10° NNE night (unlit)
12 Sep - 11:55:55 10° N 11:58:40 16° NE 12:01:25 10° E daylight
12 Sep - 13:35:35 10° WNW 13:39:34 34° SW 13:43:30 10° SSE daylight
12 Sep - 23:59:31 10° S 00:03:06 24° SE 00:06:42 10° ENE night (unlit)
13 Sep - 01:40:25 10° WSW 01:43:58 23° NW 01:47:33 10° N night (unlit)
13 Sep - 12:03:42 10° NNW 12:07:45 36° NE 12:11:46 10° ESE daylight
13 Sep - 13:46:02 10° W 13:48:37 15° SW 13:51:12 10° SSW daylight
14 Sep - 00:07:49 10° SSW 00:12:07 55° SE 00:16:29 10° NE night (unlit)
14 Sep - 01:52:19 10° WNW 01:53:05 10° NW 01:53:51 10° NW night (unlit)
14 Sep - 12:12:21 10° NW 12:16:47 87° NE 12:21:09 10° SE daylight
15 Sep - 00:16:48 10° SW 00:21:08 60° NW 00:25:31 10° NNE night (unlit)
15 Sep - 10:42:24 10° NNE 10:44:52 15° NE 10:47:18 10° E daylight
15 Sep - 12:21:39 10° WNW 12:25:46 38° SW 12:29:51 10° SSE daylight
15 Sep - 22:45:55 10° S 22:49:16 21° SE 22:52:38 10° E night (unlit)
16 Sep - 00:26:27 10° WSW 00:30:08 26° NW 00:33:51 10° N night (unlit)
16 Sep - 10:49:56 10° NNW 10:53:53 32° NE 10:57:50 10° ESE daylight
16 Sep - 12:31:49 10° W 12:34:45 17° SW 12:37:40 10° S daylight
16 Sep - 22:54:01 10° SSW 22:58:15 48° SE 23:02:30 10° NE night (unlit)
17 Sep - 00:37:34 10° WNW 00:39:09 12° NW 00:40:46 10° NNW night (unlit)
17 Sep - 10:58:25 10° NW 11:02:51 77° NE 11:07:15 10° SE daylight
17 Sep - 23:02:50 10° SW 23:07:11 69° NW 23:11:35 10° NNE night (unlit)
